| time (UTC) | temp F | wind direction | speed knots | gust knots | rain 1hr in | rain 24hr in | rain mn in | humidity % | barometer mb |
| 20260504024039 | 56 | 0 | 0.0 | 0.9 | 0.00 | 0.01 | 0.01 | 69 | 1004.5 |
| 20260504023555 | 56 | 0 | 0.0 | 0.0 | 0.00 | 0.01 | 0.01 | 69 | 1004.5 |
| 20260504023050 | 57 | 0 | 0.0 | 0.0 | 0.00 | 0.01 | 0.01 | 68 | 1004.5 |
| 20260504022541 | 57 | 0 | 0.0 | 0.0 | 0.00 | 0.01 | 0.01 | 67 | 1004.4 |
| 20260504022043 | 57 | 0 | 0.0 | 0.9 | 0.00 | 0.01 | 0.01 | 66 | 1004.3 |
| 20260504021546 | 58 | 0 | 0.0 | 0.9 | 0.00 | 0.01 | 0.01 | 65 | 1004.4 |
| 20260504021040 | 58 | 0 | 0.0 | 0.9 | 0.00 | 0.01 | 0.01 | 64 | 1004.4 |
| 20260504020540 | 59 | 234 | 0.0 | 0.9 | 0.00 | 0.01 | 0.01 | 64 | 1004.4 |
| 20260504020056 | 59 | 234 | 0.0 | 0.9 | 0.00 | 0.01 | 0.01 | 62 | 1004.3 |
| 20260504015540 | 60 | 0 | 0.0 | 0.9 | 0.00 | 0.01 | 0.01 | 62 | 1004.2 |
| 20260504015040 | 60 | 0 | 0.0 | 0.9 | 0.00 | 0.01 | 0.01 | 61 | 1004.3 |
| 20260504014549 | 61 | 0 | 0.0 | 0.9 | 0.00 | 0.01 | 0.01 | 59 | 1004.3 |
| 20260504014040 | 61 | 0 | 0.0 | 0.9 | 0.00 | 0.01 | 0.01 | 58 | 1004.3 |
| 20260504013540 | 62 | 0 | 0.0 | 1.7 | 0.00 | 0.01 | 0.01 | 57 | 1004.3 |
| 20260504013050 | 62 | 0 | 0.0 | 1.7 | 0.00 | 0.01 | 0.01 | 56 | 1004.3 |
| 20260504012543 | 63 | 234 | 0.9 | 1.7 | 0.00 | 0.01 | 0.01 | 55 | 1004.2 |
| 20260504012041 | 64 | 245 | 0.0 | 1.7 | 0.00 | 0.01 | 0.01 | 54 | 1004.2 |
| 20260504011550 | 64 | 0 | 0.0 | 1.7 | 0.00 | 0.01 | 0.01 | 53 | 1004.2 |
| 20260504011040 | 65 | 0 | 0.0 | 1.7 | 0.00 | 0.01 | 0.01 | 52 | 1004.1 |
| 20260504010540 | 65 | 246 | 0.0 | 1.7 | 0.00 | 0.01 | 0.01 | 51 | 1004.1 |
| 20260504010047 | 66 | 0 | 0.0 | 3.5 | 0.00 | 0.01 | 0.01 | 50 | 1004.0 |
| 20260504005540 | 66 | 242 | 0.9 | 4.3 | 0.00 | 0.01 | 0.01 | 49 | 1003.9 |
| 20260504005040 | 66 | 263 | 1.7 | 7.0 | 0.00 | 0.01 | 0.01 | 49 | 1004.0 |
| 20260504004548 | 67 | 241 | 2.6 | 7.0 | 0.00 | 0.01 | 0.01 | 48 | 1003.9 |
| 20260504004041 | 67 | 252 | 1.7 | 7.0 | 0.00 | 0.01 | 0.01 | 48 | 1003.8 |
| 20260504003540 | 67 | 241 | 1.7 | 7.0 | 0.00 | 0.01 | 0.01 | 47 | 1003.9 |
| 20260504003047 | 67 | 243 | 2.6 | 7.0 | 0.00 | 0.01 | 0.01 | 47 | 1003.9 |
| 20260504002543 | 68 | 242 | 2.6 | 7.8 | 0.00 | 0.01 | 0.01 | 46 | 1003.9 |
| 20260504002041 | 68 | 254 | 3.5 | 7.8 | 0.00 | 0.01 | 0.01 | 46 | 1003.9 |
| 20260504001551 | 68 | 217 | 2.6 | 9.6 | 0.00 | 0.01 | 0.01 | 46 | 1003.8 |
| 20260504001040 | 68 | 250 | 3.5 | 9.6 | 0.00 | 0.01 | 0.01 | 46 | 1003.8 |
| 20260504000542 | 68 | 265 | 1.7 | 7.8 | 0.00 | 0.01 | 0.01 | 46 | 1003.8 |
| 20260504000053 | 68 | 233 | 2.6 | 7.8 | 0.00 | 0.01 | 0.01 | 45 | 1003.7 |
| 20260503235540 | 68 | 233 | 2.6 | 7.8 | 0.00 | 0.01 | 0.01 | 45 | 1003.8 |
| 20260503235041 | 68 | 296 | 3.5 | 7.8 | 0.00 | 0.01 | 0.01 | 45 | 1003.9 |
| 20260503234551 | 68 | 249 | 4.3 | 8.7 | 0.00 | 0.01 | 0.01 | 45 | 1003.9 |
| 20260503234044 | 68 | 217 | 2.6 | 8.7 | 0.00 | 0.01 | 0.01 | 44 | 1004.0 |
| 20260503233543 | 68 | 277 | 3.5 | 8.7 | 0.00 | 0.01 | 0.01 | 44 | 1004.0 |
| 20260503233058 | 68 | 254 | 1.7 | 11.3 | 0.00 | 0.01 | 0.01 | 45 | 1004.1 |
| 20260503232538 | 69 | 301 | 3.5 | 11.3 | 0.00 | 0.01 | 0.01 | 44 | 1004.0 |
| 20260503232037 | 69 | 350 | 1.7 | 8.7 | 0.00 | 0.01 | 0.01 | 44 | 1004.1 |
| 20260503231545 | 69 | 273 | 2.6 | 7.0 | 0.00 | 0.01 | 0.01 | 45 | 1004.2 |
| 20260503231039 | 69 | 244 | 1.7 | 13.0 | 0.00 | 0.01 | 0.01 | 44 | 1004.2 |
| 20260503230540 | 69 | 304 | 5.2 | 13.0 | 0.00 | 0.01 | 0.01 | 44 | 1004.1 |
| 20260503230103 | 68 | 250 | 4.3 | 12.2 | 0.00 | 0.01 | 0.01 | 45 | 1004.3 |
| 20260503225539 | 68 | 299 | 3.5 | 14.8 | 0.00 | 0.01 | 0.01 | 45 | 1004.3 |
| 20260503225039 | 68 | 311 | 4.3 | 16.5 | 0.00 | 0.01 | 0.01 | 44 | 1004.4 |
| 20260503224552 | 69 | 271 | 5.2 | 16.5 | 0.00 | 0.01 | 0.01 | 43 | 1004.5 |
| 20260503224039 | 69 | 220 | 3.5 | 12.2 | 0.00 | 0.01 | 0.01 | 45 | 1004.5 |
| 20260503223538 | 69 | 304 | 3.5 | 15.6 | 0.00 | 0.01 | 0.01 | 45 | 1004.6 |
| 20260503223050 | 69 | 227 | 7.0 | 15.6 | 0.00 | 0.01 | 0.01 | 44 | 1004.5 |
| 20260503222539 | 69 | 265 | 5.2 | 14.8 | 0.00 | 0.01 | 0.01 | 43 | 1004.6 |
| 20260503222042 | 69 | 225 | 7.0 | 14.8 | 0.00 | 0.01 | 0.01 | 44 | 1004.6 |
| 20260503221556 | 69 | 279 | 5.2 | 14.8 | 0.00 | 0.01 | 0.01 | 44 | 1004.5 |
| 20260503221039 | 69 | 254 | 8.7 | 14.8 | 0.00 | 0.01 | 0.01 | 44 | 1004.5 |
| 20260503220539 | 69 | 315 | 4.3 | 13.0 | 0.00 | 0.01 | 0.01 | 44 | 1004.5 |
| 20260503220057 | 68 | 259 | 6.1 | 17.4 | 0.00 | 0.01 | 0.01 | 45 | 1004.5 |
| 20260503215538 | 68 | 304 | 9.6 | 17.4 | 0.00 | 0.01 | 0.01 | 44 | 1004.7 |
| 20260503215038 | 69 | 246 | 7.0 | 15.6 | 0.00 | 0.01 | 0.01 | 44 | 1004.7 |
| 20260503214550 | 69 | 275 | 8.7 | 15.6 | 0.00 | 0.01 | 0.01 | 43 | 1004.6 |
| 20260503214039 | 69 | 194 | 6.1 | 15.6 | 0.00 | 0.01 | 0.01 | 44 | 1004.5 |
| 20260503213539 | 69 | 254 | 5.2 | 13.9 | 0.00 | 0.01 | 0.01 | 46 | 1004.5 |
| 20260503213052 | 69 | 252 | 4.3 | 16.5 | 0.00 | 0.01 | 0.01 | 45 | 1004.6 |
| 20260503212539 | 69 | 308 | 7.8 | 19.1 | 0.00 | 0.01 | 0.01 | 45 | 1004.6 |
| 20260503212039 | 68 | 232 | 6.1 | 19.1 | 0.00 | 0.01 | 0.01 | 46 | 1004.6 |
| 20260503211603 | 68 | 277 | 7.8 | 14.8 | 0.00 | 0.01 | 0.01 | 44 | 1004.7 |
| 20260503211039 | 69 | 240 | 4.3 | 17.4 | 0.00 | 0.01 | 0.01 | 45 | 1004.8 |
| 20260503210540 | 68 | 230 | 7.0 | 17.4 | 0.00 | 0.01 | 0.01 | 45 | 1004.9 |
| 20260503210042 | 68 | 223 | 4.3 | 14.8 | 0.00 | 0.01 | 0.01 | 45 | 1005.1 |
| 20260503205540 | 68 | 268 | 3.5 | 16.5 | 0.00 | 0.01 | 0.01 | 46 | 1005.1 |
| 20260503205039 | 68 | 277 | 7.8 | 16.5 | 0.00 | 0.01 | 0.01 | 46 | 1005.3 |
| 20260503204548 | 67 | 242 | 6.1 | 14.8 | 0.00 | 0.01 | 0.01 | 46 | 1005.1 |
| 20260503204039 | 67 | 252 | 5.2 | 16.5 | 0.00 | 0.01 | 0.01 | 46 | 1005.4 |
| 20260503203538 | 67 | 308 | 9.6 | 16.5 | 0.00 | 0.01 | 0.01 | 47 | 1005.5 |
| 20260503203053 | 68 | 236 | 6.1 | 15.6 | 0.00 | 0.01 | 0.01 | 46 | 1005.6 |
| 20260503202539 | 67 | 248 | 7.8 | 19.1 | 0.00 | 0.01 | 0.01 | 47 | 1005.5 |
| 20260503202039 | 67 | 297 | 6.1 | 20.9 | 0.00 | 0.01 | 0.01 | 48 | 1005.7 |
| 20260503201547 | 66 | 204 | 10.4 | 20.9 | 0.00 | 0.01 | 0.01 | 47 | 1005.7 |
| 20260503201041 | 67 | 219 | 6.1 | 19.1 | 0.00 | 0.01 | 0.01 | 48 | 1005.7 |
| 20260503200539 | 66 | 238 | 9.6 | 17.4 | 0.00 | 0.01 | 0.01 | 46 | 1005.8 |
| 20260503200058 | 66 | 194 | 7.8 | 18.2 | 0.00 | 0.01 | 0.01 | 47 | 1005.7 |
| 20260503195539 | 66 | 194 | 9.6 | 18.2 | 0.00 | 0.01 | 0.01 | 47 | 1006.0 |
| 20260503195038 | 66 | 236 | 8.7 | 19.1 | 0.00 | 0.01 | 0.01 | 47 | 1006.2 |
| 20260503194547 | 66 | 228 | 9.6 | 19.1 | 0.00 | 0.01 | 0.01 | 46 | 1006.2 |
| 20260503194039 | 65 | 225 | 9.6 | 18.2 | 0.00 | 0.01 | 0.01 | 48 | 1006.4 |
| 20260503193538 | 65 | 186 | 10.4 | 18.2 | 0.00 | 0.01 | 0.01 | 47 | 1006.3 |
| 20260503193058 | 65 | 270 | 8.7 | 18.2 | 0.00 | 0.01 | 0.01 | 47 | 1006.2 |
| 20260503192541 | 65 | 206 | 7.8 | 18.2 | 0.00 | 0.01 | 0.01 | 47 | 1006.5 |
| 20260503192038 | 65 | 219 | 10.4 | 25.2 | 0.00 | 0.01 | 0.01 | 47 | 1006.4 |
| 20260503191549 | 65 | 240 | 10.4 | 25.2 | 0.00 | 0.01 | 0.01 | 47 | 1006.6 |
| 20260503191039 | 65 | 199 | 10.4 | 31.3 | 0.00 | 0.01 | 0.01 | 47 | 1006.6 |
| 20260503190538 | 65 | 267 | 8.7 | 31.3 | 0.00 | 0.01 | 0.01 | 48 | 1006.7 |
| 20260503190050 | 65 | 198 | 12.2 | 31.3 | 0.00 | 0.01 | 0.01 | 47 | 1006.7 |
| 20260503185538 | 64 | 208 | 9.6 | 26.1 | 0.00 | 0.01 | 0.01 | 50 | 1006.7 |
| 20260503185038 | 64 | 215 | 7.0 | 20.9 | 0.00 | 0.01 | 0.01 | 50 | 1006.7 |
| 20260503184558 | 63 | 237 | 10.4 | 20.9 | 0.00 | 0.01 | 0.01 | 52 | 1006.8 |
| 20260503184039 | 63 | 225 | 8.7 | 20.0 | 0.00 | 0.01 | 0.01 | 53 | 1006.8 |
| 20260503183539 | 63 | 222 | 7.0 | 20.0 | 0.00 | 0.01 | 0.01 | 54 | 1006.9 |
| 20260503183045 | 63 | 217 | 11.3 | 17.4 | 0.00 | 0.01 | 0.01 | 52 | 1006.9 |
| 20260503182540 | 63 | 229 | 8.7 | 21.7 | 0.00 | 0.01 | 0.01 | 52 | 1007.1 |
| 20260503182038 | 63 | 228 | 9.6 | 21.7 | 0.00 | 0.01 | 0.01 | 52 | 1007.1 |
| 20260503181608 | 63 | 223 | 9.6 | 21.7 | 0.00 | 0.01 | 0.01 | 50 | 1007.2 |
| 20260503181039 | 63 | 212 | 7.8 | 22.6 | 0.00 | 0.01 | 0.01 | 51 | 1007.2 |
| 20260503180539 | 62 | 257 | 11.3 | 22.6 | 0.00 | 0.01 | 0.01 | 50 | 1007.3 |
| 20260503180110 | 62 | 221 | 11.3 | 22.6 | 0.00 | 0.01 | 0.01 | 51 | 1007.3 |
| 20260503175538 | 62 | 201 | 13.0 | 22.6 | 0.00 | 0.01 | 0.01 | 51 | 1007.3 |
| 20260503175038 | 62 | 234 | 10.4 | 20.9 | 0.00 | 0.01 | 0.01 | 52 | 1007.4 |
| 20260503174555 | 62 | 234 | 10.4 | 20.9 | 0.00 | 0.01 | 0.01 | 54 | 1007.5 |
| 20260503174039 | 61 | 270 | 10.4 | 22.6 | 0.00 | 0.01 | 0.01 | 53 | 1007.5 |
| 20260503173539 | 62 | 194 | 11.3 | 22.6 | 0.00 | 0.01 | 0.01 | 53 | 1007.5 |
| 20260503173058 | 62 | 242 | 8.7 | 18.2 | 0.00 | 0.01 | 0.01 | 53 | 1007.4 |
| 20260503172542 | 61 | 259 | 7.8 | 22.6 | 0.00 | 0.01 | 0.01 | 55 | 1007.5 |
| 20260503172038 | 60 | 225 | 9.6 | 22.6 | 0.00 | 0.01 | 0.01 | 55 | 1007.5 |
| 20260503171545 | 60 | 225 | 10.4 | 21.7 | 0.00 | 0.01 | 0.01 | 55 | 1007.5 |
| 20260503171039 | 60 | 195 | 11.3 | 21.7 | 0.00 | 0.01 | 0.01 | 55 | 1007.5 |
| 20260503170539 | 59 | 231 | 10.4 | 22.6 | 0.00 | 0.01 | 0.01 | 58 | 1007.7 |
| 20260503150539 | 49 | 213 | 4.3 | 17.4 | 0.01 | 0.01 | 0.01 | 85 | 1010.4 |
| 20260503131038 | 52 | 250 | 5.2 | 12.2 | 0.00 | 0.00 | 0.00 | 63 | 1011.2 |
| 20260503130538 | 51 | 252 | 7.0 | 12.2 | 0.00 | 0.00 | 0.00 | 63 | 1011.4 |
| 20260503110541 | 48 | 248 | 5.2 | 13.0 | 0.00 | 0.00 | 0.00 | 60 | 1011.3 |
| 20260503081549 | 47 | 217 | 3.5 | 7.0 | 0.00 | 0.00 | 0.00 | 57 | 1012.4 |
| 20260503081036 | 47 | 234 | 3.5 | 7.8 | 0.00 | 0.00 | 0.00 | 57 | 1012.4 |
| 20260503080537 | 46 | 238 | 3.5 | 7.8 | 0.00 | 0.00 | 0.00 | 58 | 1012.4 |
| 20260503080105 | 46 | 242 | 2.6 | 7.8 | 0.00 | 0.00 | 0.00 | 58 | 1012.5 |
| 20260503072541 | 46 | 215 | 2.6 | 7.8 | 0.00 | 0.00 | 0.00 | 58 | 1012.8 |
| 20260503072039 | 46 | 188 | 3.5 | 7.8 | 0.00 | 0.00 | 0.00 | 58 | 1012.7 |
| 20260503071552 | 46 | 229 | 2.6 | 7.8 | 0.00 | 0.00 | 0.00 | 58 | 1012.7 |
| 20260503071043 | 46 | 209 | 3.5 | 7.8 | 0.00 | 0.00 | 0.00 | 58 | 1012.8 |
| 20260503070539 | 46 | 223 | 2.6 | 6.1 | 0.00 | 0.00 | 0.00 | 57 | 1012.8 |
| 20260503055038 | 47 | 227 | 4.3 | 8.7 | 0.00 | 0.00 | 0.00 | 55 | 1013.4 |
| 20260503054546 | 47 | 219 | 2.6 | 7.0 | 0.00 | 0.00 | 0.00 | 55 | 1013.4 |
| 20260503054039 | 47 | 234 | 2.6 | 8.7 | 0.00 | 0.00 | 0.00 | 55 | 1013.4 |
| 20260503053539 | 47 | 259 | 2.6 | 8.7 | 0.00 | 0.00 | 0.00 | 55 | 1013.4 |
| 20260503053045 | 47 | 270 | 2.6 | 9.6 | 0.00 | 0.00 | 0.00 | 55 | 1013.4 |
| 20260503052537 | 47 | 242 | 3.5 | 9.6 | 0.00 | 0.00 | 0.00 | 55 | 1013.5 |
| 20260503052038 | 47 | 236 | 2.6 | 9.6 | 0.00 | 0.00 | 0.00 | 55 | 1013.6 |
| 20260503051550 | 47 | 244 | 3.5 | 9.6 | 0.00 | 0.00 | 0.00 | 55 | 1013.6 |
| 20260503051042 | 47 | 227 | 2.6 | 7.0 | 0.00 | 0.00 | 0.00 | 55 | 1013.7 |
| 20260503050542 | 47 | 243 | 3.5 | 7.8 | 0.00 | 0.00 | 0.00 | 55 | 1013.7 |
| 20260503050040 | 47 | 245 | 2.6 | 7.8 | 0.00 | 0.00 | 0.00 | 55 | 1013.7 |
| 20260503045539 | 47 | 257 | 4.3 | 7.8 | 0.00 | 0.00 | 0.00 | 55 | 1013.6 |
| 20260503045036 | 47 | 213 | 1.7 | 6.1 | 0.00 | 0.00 | 0.00 | 56 | 1013.7 |
| 20260503044547 | 47 | 244 | 2.6 | 7.8 | 0.00 | 0.00 | 0.00 | 56 | 1013.8 |
| 20260503044038 | 47 | 210 | 2.6 | 7.8 | 0.00 | 0.00 | 0.00 | 56 | 1013.7 |
| 20260503043538 | 47 | 209 | 2.6 | 7.0 | 0.00 | 0.00 | 0.00 | 56 | 1013.8 |
| 20260503043043 | 47 | 255 | 1.7 | 7.8 | 0.00 | 0.00 | 0.00 | 56 | 1013.9 |
| 20260503042539 | 47 | 215 | 2.6 | 7.8 | 0.00 | 0.00 | 0.00 | 55 | 1014.0 |
| 20260503042039 | 47 | 205 | 2.6 | 7.0 | 0.00 | 0.00 | 0.00 | 55 | 1014.1 |
| 20260503041545 | 47 | 221 | 1.7 | 7.0 | 0.00 | 0.00 | 0.00 | 55 | 1014.1 |
| 20260503041039 | 47 | 209 | 1.7 | 6.1 | 0.00 | 0.00 | 0.00 | 55 | 1014.1 |
| 20260503040537 | 47 | 266 | 2.6 | 6.1 | 0.00 | 0.00 | 0.00 | 55 | 1014.1 |
| 20260503040048 | 48 | 232 | 1.7 | 4.3 | 0.00 | 0.00 | 0.00 | 55 | 1014.2 |
| 20260503035537 | 48 | 267 | 1.7 | 7.0 | 0.00 | 0.00 | 0.00 | 54 | 1014.2 |
| 20260503035037 | 48 | 240 | 1.7 | 7.0 | 0.00 | 0.00 | 0.00 | 54 | 1014.2 |
| 20260503034557 | 48 | 261 | 2.6 | 5.2 | 0.00 | 0.00 | 0.00 | 54 | 1014.2 |
| 20260503034039 | 48 | 261 | 1.7 | 5.2 | 0.00 | 0.00 | 0.00 | 54 | 1014.3 |
| 20260503033536 | 48 | 238 | 1.7 | 5.2 | 0.00 | 0.00 | 0.00 | 54 | 1014.3 |
| 20260503033046 | 48 | 225 | 1.7 | 5.2 | 0.00 | 0.00 | 0.00 | 54 | 1014.3 |
| 20260503032539 | 48 | 226 | 0.9 | 4.3 | 0.00 | 0.00 | 0.00 | 54 | 1014.4 |
| 20260503032039 | 48 | 197 | 1.7 | 6.1 | 0.00 | 0.00 | 0.00 | 54 | 1014.5 |
| 20260503031544 | 48 | 238 | 1.7 | 6.1 | 0.00 | 0.00 | 0.00 | 53 | 1014.4 |
| 20260503031039 | 49 | 235 | 1.7 | 6.1 | 0.00 | 0.00 | 0.00 | 53 | 1014.5 |
| 20260503030539 | 49 | 223 | 1.7 | 6.1 | 0.00 | 0.00 | 0.00 | 53 | 1014.6 |
| 20260503030113 | 49 | 237 | 1.7 | 6.1 | 0.00 | 0.00 | 0.00 | 52 | 1014.7 |
| 20260503025541 | 49 | 239 | 1.7 | 4.3 | 0.00 | 0.00 | 0.00 | 52 | 1014.7 |
| 20260503025038 | 49 | 239 | 1.7 | 5.2 | 0.00 | 0.00 | 0.00 | 51 | 1014.7 |
| 20260503024545 | 49 | 218 | 1.7 | 5.2 | 0.00 | 0.00 | 0.00 | 51 | 1014.7 |